Location: Carrer del Canonge
(41.4901°N, 2.2931°E)
Time: 07:29:36
(UTC+00:00)

Cosmos 1603 - Pass Details

Date: 18 September 2020
Orbit: 832 x 858 km, 71.0° (Epoch: 26 October)

Event Time Altitude Azimuth Distance (km) Brightness Sun altitude
Rises 18:22:44 0° 339° (NNW) 3,416 7.3 -6.1°
Reaches altitude 10° 18:25:14 10° 343° (NNW) 2,473 6.5 -6.6°
Maximum altitude 18:30:51 61° 63° (ENE) 951 3.8 -7.6°
Drops below altitude 10° 18:36:23 10° 144° (SE) 2,442 5.7 -8.7°
Sets 18:38:51 0° 148° (SSE) 3,369 6.4 -9.1°
